Time,TemperatureF,DewpointF,PressureIn,WindDirection,WindDirectionDegrees,WindSpeedMPH,WindSpeedGustMPH,Humidity,HourlyPrecipIn,Conditions,Clouds,dailyrainin,SoftwareType,DateUTC
2013-04-06 00:00:00,27.9,11.6,29.47,SSE,158,0.0,0.0,50,0.00,,,0.00,VWS V14.01,2013-04-06 04:00:00,
2013-04-06 00:02:00,27.9,11.6,29.47,South,180,0.0,0.0,50,0.00,,,0.00,VWS V14.01,2013-04-06 04:02:00,
2013-04-06 00:03:00,27.9,11.6,29.47,South,180,0.0,0.0,50,0.00,,,0.00,VWS V14.01,2013-04-06 04:03:00,
2013-04-06 00:05:00,27.9,11.6,29.47,South,180,0.0,0.0,50,0.00,,,0.00,VWS V14.01,2013-04-06 04:05:00,
2013-04-06 00:06:00,27.7,11.5,29.47,SSW,202,0.0,0.0,50,0.00,,,0.00,VWS V14.01,2013-04-06 04:06:00,
2013-04-06 00:07:00,27.7,11.5,29.44,South,180,0.0,0.0,50,0.00,,,0.00,VWS V14.01,2013-04-06 04:07:00,
2013-04-06 00:09:00,27.7,11.5,29.44,South,180,0.0,0.0,50,0.00,,,0.00,VWS V14.01,2013-04-06 04:09:00,
2013-04-06 00:10:00,27.7,11.5,29.44,SSE,158,2.9,2.9,50,0.00,,,0.00,VWS V14.01,2013-04-06 04:10:00,
2013-04-06 00:11:00,27.7,11.5,29.44,South,180,0.0,2.9,50,0.00,,,0.00,VWS V14.01,2013-04-06 04:11:00,
2013-04-06 00:12:00,27.7,11.5,29.44,South,180,0.0,2.9,50,0.00,,,0.00,VWS V14.01,2013-04-06 04:12:00,
2013-04-06 00:13:00,27.7,11.5,29.44,SSW,202,2.9,2.9,50,0.00,,,0.00,VWS V14.01,2013-04-06 04:13:00,
2013-04-06 00:14:00,27.7,11.5,29.44,SSW,202,2.9,2.9,50,0.00,,,0.00,VWS V14.01,2013-04-06 04:14:00,
2013-04-06 00:15:00,27.7,11.5,29.44,SSE,158,2.0,2.9,50,0.00,,,0.00,VWS V14.01,2013-04-06 04:15:00,
2013-04-06 00:16:00,27.9,11.6,29.44,SSE,158,0.0,2.0,50,0.00,,,0.00,VWS V14.01,2013-04-06 04:16:00,
2013-04-06 00:17:00,28.0,12.3,29.44,SSW,202,2.7,2.7,51,0.00,,,0.00,VWS V14.01,2013-04-06 04:17:00,
2013-04-06 00:18:00,27.7,11.5,29.44,South,180,0.0,0.0,50,0.00,,,0.00,VWS V14.01,2013-04-06 04:18:00,
2013-04-06 00:19:00,27.7,11.5,29.44,South,180,0.0,0.0,50,0.00,,,0.00,VWS V14.01,2013-04-06 04:19:00,
2013-04-06 00:20:00,27.7,11.5,29.44,SSW,202,2.2,2.2,50,0.00,,,0.00,VWS V14.01,2013-04-06 04:20:00,
2013-04-06 00:21:00,27.7,11.5,29.44,SSE,158,2.7,2.7,50,0.00,,,0.00,VWS V14.01,2013-04-06 04:21:00,
2013-04-06 00:22:00,28.0,12.3,29.44,SSE,158,0.0,2.0,51,0.00,,,35.25,VWS V14.01,2013-04-06 04:22:00,
2013-04-06 00:23:00,27.9,11.6,29.47,SSE,158,1.3,2.2,50,0.00,,,0.00,VWS V14.01,2013-04-06 04:23:00,
2013-04-06 00:24:00,27.9,11.6,29.47,South,180,1.6,2.2,50,0.00,,,0.00,VWS V14.01,2013-04-06 04:24:00,
2013-04-06 00:25:00,27.9,11.6,29.47,SSE,158,1.6,2.2,50,0.00,,,0.00,VWS V14.01,2013-04-06 04:25:00,
2013-04-06 00:26:00,27.9,11.2,29.47,SSE,158,3.1,3.1,49,0.00,,,0.00,VWS V14.01,2013-04-06 04:26:00,
2013-04-06 00:27:00,28.0,12.3,29.44,SSW,202,3.6,3.6,51,0.00,,,0.00,VWS V14.01,2013-04-06 04:27:00,
2013-04-06 00:28:00,27.9,11.2,29.47,SSE,158,2.2,2.9,49,0.00,,,0.00,VWS V14.01,2013-04-06 04:28:00,
2013-04-06 00:29:00,27.9,11.2,29.47,SSE,158,3.4,3.4,49,0.00,,,0.00,VWS V14.01,2013-04-06 04:29:00,
2013-04-06 00:30:00,28.0,11.4,29.47,SSE,158,2.7,3.4,49,0.00,,,0.00,VWS V14.01,2013-04-06 04:30:00,
2013-04-06 00:31:00,28.0,11.4,29.47,South,180,2.7,2.7,49,0.00,,,0.00,VWS V14.01,2013-04-06 04:31:00,
2013-04-06 00:32:00,28.0,12.3,29.44,SSE,158,0.0,3.8,51,0.00,,,0.00,VWS V14.01,2013-04-06 04:32:00,
2013-04-06 00:33:00,28.0,11.4,29.47,SSE,158,1.6,2.5,49,0.00,,,0.00,VWS V14.01,2013-04-06 04:33:00,
2013-04-06 00:34:00,28.0,11.4,29.47,South,180,3.4,3.4,49,0.00,,,0.00,VWS V14.01,2013-04-06 04:34:00,
2013-04-06 00:35:00,28.0,11.4,29.47,SSE,158,2.5,3.4,49,0.00,,,0.00,VWS V14.01,2013-04-06 04:35:00,
2013-04-06 00:36:00,28.0,11.4,29.47,SSW,202,2.2,3.4,49,0.00,,,0.00,VWS V14.01,2013-04-06 04:36:00,
2013-04-06 00:37:00,27.9,12.1,29.47,SSW,202,2.9,3.4,51,0.00,,,35.25,VWS V14.01,2013-04-06 04:37:00,
2013-04-06 00:38:00,28.0,11.4,29.47,ESE,112,2.2,4.0,49,0.00,,,0.00,VWS V14.01,2013-04-06 04:38:00,
2013-04-06 00:39:00,28.2,11.1,29.47,ESE,112,2.2,2.2,48,0.00,,,0.00,VWS V14.01,2013-04-06 04:39:00,
2013-04-06 00:40:00,28.2,11.1,29.47,SE,135,1.1,4.0,48,0.00,,,0.00,VWS V14.01,2013-04-06 04:40:00,
2013-04-06 00:41:00,28.2,11.1,29.47,SE,135,2.2,3.4,48,0.00,,,0.00,VWS V14.01,2013-04-06 04:41:00,
2013-04-06 00:42:00,27.9,12.1,29.47,SSE,158,2.7,3.4,51,0.00,,,35.25,VWS V14.01,2013-04-06 04:42:00,
2013-04-06 00:43:00,28.2,11.1,29.47,ESE,112,2.2,3.1,48,0.00,,,0.00,VWS V14.01,2013-04-06 04:43:00,
2013-04-06 00:44:00,28.0,11.4,29.47,SE,135,1.6,2.2,49,0.00,,,0.00,VWS V14.01,2013-04-06 04:44:00,
2013-04-06 00:45:00,28.0,11.4,29.47,SE,135,1.3,1.6,49,0.00,,,0.00,VWS V14.01,2013-04-06 04:45:00,
2013-04-06 00:46:00,28.0,11.4,29.47,ESE,112,1.6,2.7,49,0.00,,,0.00,VWS V14.01,2013-04-06 04:46:00,
2013-04-06 00:47:00,27.9,11.2,29.47,ESE,112,2.5,2.7,49,0.00,,,0.00,VWS V14.01,2013-04-06 04:47:00,
2013-04-06 00:48:00,27.9,12.1,29.47,SSE,158,2.0,3.1,51,0.00,,,0.00,VWS V14.01,2013-04-06 04:48:00,
2013-04-06 00:49:00,27.9,11.2,29.47,SE,135,2.9,2.9,49,0.00,,,0.00,VWS V14.01,2013-04-06 04:49:00,
2013-04-06 00:50:00,27.9,11.2,29.47,ESE,112,2.7,2.9,49,0.00,,,0.00,VWS V14.01,2013-04-06 04:50:00,
2013-04-06 00:51:00,27.7,11.0,29.47,ESE,112,2.2,2.9,49,0.00,,,0.00,VWS V14.01,2013-04-06 04:51:00,
2013-04-06 00:52:00,27.7,11.0,29.47,ESE,112,2.7,2.7,49,0.00,,,0.00,VWS V14.01,2013-04-06 04:52:00,
2013-04-06 00:53:00,27.9,11.6,29.47,SSE,158,1.6,1.6,50,0.00,,,35.25,VWS V14.01,2013-04-06 04:53:00,
2013-04-06 00:54:00,27.5,10.9,29.47,East,90,2.2,2.5,49,0.00,,,0.00,VWS V14.01,2013-04-06 04:54:00,
2013-04-06 00:55:00,27.5,10.9,29.47,East,90,2.0,2.2,49,0.00,,,0.00,VWS V14.01,2013-04-06 04:55:00,
2013-04-06 00:56:00,27.3,11.1,29.47,East,90,2.5,2.5,50,0.00,,,0.00,VWS V14.01,2013-04-06 04:56:00,
2013-04-06 00:57:00,27.3,10.7,29.47,East,90,2.5,3.1,49,0.00,,,0.00,VWS V14.01,2013-04-06 04:57:00,
2013-04-06 00:58:00,27.9,11.6,29.47,SSW,202,1.3,2.5,50,0.00,,,0.00,VWS V14.01,2013-04-06 04:58:00,
2013-04-06 00:59:00,27.3,11.1,29.47,East,90,2.9,3.1,50,0.00,,,0.00,VWS V14.01,2013-04-06 04:59:00,
2013-04-06 01:00:00,27.1,11.0,29.47,East,90,1.3,2.9,50,0.00,,,0.00,VWS V14.01,2013-04-06 05:00:00,
2013-04-06 01:01:00,27.1,11.0,29.47,East,90,2.5,2.5,50,0.00,,,0.00,VWS V14.01,2013-04-06 05:01:00,
2013-04-06 01:02:00,27.0,10.8,29.47,East,90,2.5,2.5,50,0.00,,,0.00,VWS V14.01,2013-04-06 05:02:00,
2013-04-06 01:03:00,27.9,11.6,29.47,South,180,0.0,0.0,50,0.00,,,0.00,VWS V14.01,2013-04-06 05:03:00,
2013-04-06 01:04:00,27.0,10.8,29.47,ESE,112,3.1,3.1,50,0.00,,,0.00,VWS V14.01,2013-04-06 05:04:00,
2013-04-06 01:05:00,27.0,11.3,29.47,ESE,112,3.4,3.4,51,0.00,,,0.00,VWS V14.01,2013-04-06 05:05:00,
2013-04-06 01:06:00,27.0,11.3,29.47,ESE,112,3.6,3.6,51,0.00,,,0.00,VWS V14.01,2013-04-06 05:06:00,
2013-04-06 01:07:00,27.0,11.3,29.47,ESE,112,2.9,3.8,51,0.00,,,0.00,VWS V14.01,2013-04-06 05:07:00,
2013-04-06 01:08:00,27.7,11.5,29.44,South,180,0.0,0.0,50,0.00,,,0.00,VWS V14.01,2013-04-06 05:08:00,
2013-04-06 01:09:00,27.0,11.3,29.47,ESE,112,2.7,3.4,51,0.00,,,0.00,VWS V14.01,2013-04-06 05:09:00,
2013-04-06 01:10:00,27.0,11.3,29.47,SE,135,2.7,3.4,51,0.00,,,0.00,VWS V14.01,2013-04-06 05:10:00,
2013-04-06 01:11:00,27.0,11.3,29.47,SE,135,2.7,3.4,51,0.00,,,0.00,VWS V14.01,2013-04-06 05:11:00,
2013-04-06 01:12:00,27.0,11.3,29.47,SE,135,2.0,2.7,51,0.00,,,0.00,VWS V14.01,2013-04-06 05:12:00,
2013-04-06 01:13:00,27.0,11.3,29.47,SE,135,2.0,2.0,51,0.00,,,0.00,VWS V14.01,2013-04-06 05:13:00,
2013-04-06 01:14:00,27.7,11.5,29.44,SSW,202,2.9,2.9,50,0.00,,,0.00,VWS V14.01,2013-04-06 05:14:00,
2013-04-06 01:15:00,27.0,11.3,29.47,East,90,2.0,3.4,51,0.00,,,0.00,VWS V14.01,2013-04-06 05:15:00,
2013-04-06 01:16:00,27.0,11.3,29.47,ESE,112,3.1,3.8,51,0.00,,,0.00,VWS V14.01,2013-04-06 05:16:00,
2013-04-06 01:17:00,27.0,11.7,29.47,SE,135,3.1,3.4,52,0.00,,,0.00,VWS V14.01,2013-04-06 05:17:00,
2013-04-06 01:19:00,27.7,11.5,29.44,South,180,0.0,0.0,50,0.00,,,0.00,VWS V14.01,2013-04-06 05:19:00,
2013-04-06 01:20:00,27.1,11.9,29.47,ESE,112,3.1,3.4,52,0.00,,,0.00,VWS V14.01,2013-04-06 05:20:00,
2013-04-06 01:21:00,27.1,11.9,29.47,SE,135,3.1,3.4,52,0.00,,,0.00,VWS V14.01,2013-04-06 05:21:00,
2013-04-06 01:22:00,27.1,11.9,29.47,SE,135,3.1,3.1,52,0.00,,,0.00,VWS V14.01,2013-04-06 05:22:00,
2013-04-06 01:23:00,27.1,11.9,29.47,SE,135,2.9,3.1,52,0.00,,,0.00,VWS V14.01,2013-04-06 05:23:00,
2013-04-06 01:24:00,27.9,11.6,29.47,SSE,158,1.3,2.2,50,0.00,,,0.00,VWS V14.01,2013-04-06 05:24:00,
2013-04-06 01:25:00,27.1,11.9,29.47,ESE,112,2.5,3.8,52,0.00,,,0.00,VWS V14.01,2013-04-06 05:25:00,
2013-04-06 01:26:00,27.1,11.9,29.47,ESE,112,3.1,3.1,52,0.00,,,0.00,VWS V14.01,2013-04-06 05:26:00,
2013-04-06 01:27:00,27.1,11.9,29.47,East,90,3.4,3.6,52,0.00,,,0.00,VWS V14.01,2013-04-06 05:27:00,
2013-04-06 01:28:00,27.1,11.9,29.47,ESE,112,2.7,3.4,52,0.00,,,0.00,VWS V14.01,2013-04-06 05:28:00,
2013-04-06 01:29:00,28.0,11.4,29.47,SSE,158,2.7,3.4,49,0.00,,,0.00,VWS V14.01,2013-04-06 05:29:00,
2013-04-06 01:30:00,27.1,11.9,29.47,East,90,2.9,2.9,52,0.00,,,0.00,VWS V14.01,2013-04-06 05:30:00,
2013-04-06 01:31:00,27.1,11.9,29.47,ESE,112,1.3,3.1,52,0.00,,,0.00,VWS V14.01,2013-04-06 05:31:00,
2013-04-06 01:32:00,27.0,11.7,29.47,ESE,112,2.5,3.4,52,0.00,,,0.00,VWS V14.01,2013-04-06 05:32:00,
2013-04-06 01:33:00,27.1,11.9,29.47,SE,135,4.0,4.0,52,0.00,,,0.00,VWS V14.01,2013-04-06 05:33:00,
2013-04-06 01:34:00,27.1,11.9,29.47,ESE,112,2.7,4.0,52,0.00,,,0.00,VWS V14.01,2013-04-06 05:34:00,
2013-04-06 01:35:00,28.0,11.4,29.47,SSE,158,2.5,3.4,49,0.00,,,0.00,VWS V14.01,2013-04-06 05:35:00,
2013-04-06 01:36:00,27.1,11.9,29.47,ESE,112,2.9,3.4,52,0.00,,,0.00,VWS V14.01,2013-04-06 05:36:00,
2013-04-06 01:37:00,27.0,11.7,29.44,East,90,2.5,2.9,52,0.00,,,0.00,VWS V14.01,2013-04-06 05:37:00,
2013-04-06 01:38:00,27.0,12.1,29.44,East,90,2.7,2.7,53,0.00,,,0.00,VWS V14.01,2013-04-06 05:38:00,
2013-04-06 01:39:00,27.0,12.1,29.44,ESE,112,2.7,2.9,53,0.00,,,0.00,VWS V14.01,2013-04-06 05:39:00,
2013-04-06 01:40:00,28.2,11.1,29.47,ESE,112,2.2,2.2,48,0.00,,,0.00,VWS V14.01,2013-04-06 05:40:00,
2013-04-06 01:41:00,26.8,12.0,29.44,ESE,112,2.7,2.7,53,0.00,,,0.00,VWS V14.01,2013-04-06 05:41:00,
2013-04-06 01:42:00,26.6,11.8,29.44,East,90,2.9,3.1,53,0.00,,,0.00,VWS V14.01,2013-04-06 05:42:00,
2013-04-06 01:43:00,26.6,11.8,29.44,East,90,2.9,2.9,53,0.00,,,0.00,VWS V14.01,2013-04-06 05:43:00,
2013-04-06 01:44:00,26.6,11.8,29.44,ESE,112,2.5,2.9,53,0.00,,,0.00,VWS V14.01,2013-04-06 05:44:00,
2013-04-06 01:45:00,28.0,11.4,29.47,SE,135,1.3,1.6,49,0.00,,,0.00,VWS V14.01,2013-04-06 05:45:00,
2013-04-06 01:47:00,26.6,11.8,29.44,East,90,2.2,2.5,53,0.00,,,0.00,VWS V14.01,2013-04-06 05:47:00,
2013-04-06 01:48:00,26.6,11.8,29.44,SE,135,2.5,2.5,53,0.00,,,0.00,VWS V14.01,2013-04-06 05:48:00,
2013-04-06 01:49:00,26.8,12.0,29.44,SSE,158,2.0,2.5,53,0.00,,,0.00,VWS V14.01,2013-04-06 05:49:00,
2013-04-06 01:50:00,27.9,11.2,29.47,ESE,112,2.7,2.7,49,0.00,,,0.00,VWS V14.01,2013-04-06 05:50:00,
2013-04-06 01:51:00,26.8,12.0,29.44,SE,135,2.0,2.9,53,0.00,,,0.00,VWS V14.01,2013-04-06 05:51:00,
2013-04-06 01:52:00,26.8,12.0,29.44,ESE,112,4.0,4.0,53,0.00,,,0.00,VWS V14.01,2013-04-06 05:52:00,
2013-04-06 01:53:00,27.0,12.1,29.44,East,90,2.2,4.0,53,0.00,,,0.00,VWS V14.01,2013-04-06 05:53:00,
2013-04-06 01:54:00,27.0,12.1,29.44,SE,135,3.1,3.6,53,0.00,,,0.00,VWS V14.01,2013-04-06 05:54:00,
2013-04-06 01:55:00,27.5,10.9,29.47,East,90,2.0,2.2,49,0.00,,,0.00,VWS V14.01,2013-04-06 05:55:00,
2013-04-06 01:56:00,27.0,12.1,29.44,SSE,158,3.6,3.6,53,0.00,,,0.00,VWS V14.01,2013-04-06 05:56:00,
2013-04-06 01:57:00,27.0,12.1,29.44,SE,135,1.6,3.6,53,0.00,,,0.00,VWS V14.01,2013-04-06 05:57:00,
2013-04-06 01:58:00,27.0,12.1,29.44,ESE,112,1.6,2.2,53,0.00,,,0.00,VWS V14.01,2013-04-06 05:58:00,
2013-04-06 01:59:00,27.0,12.1,29.44,SE,135,0.9,2.0,53,0.00,,,0.00,VWS V14.01,2013-04-06 05:59:00,
2013-04-06 02:00:00,27.1,11.0,29.47,East,90,1.3,2.9,50,0.00,,,0.00,VWS V14.01,2013-04-06 06:00:00,
2013-04-06 02:01:00,27.0,12.1,29.44,SSE,158,2.7,2.7,53,0.00,,,0.00,VWS V14.01,2013-04-06 06:01:00,
2013-04-06 02:02:00,27.0,12.1,29.44,SSE,158,1.3,2.9,53,0.00,,,0.00,VWS V14.01,2013-04-06 06:02:00,
2013-04-06 02:03:00,27.0,12.1,29.44,SE,135,4.0,4.0,53,0.00,,,0.00,VWS V14.01,2013-04-06 06:03:00,
2013-04-06 02:04:00,27.1,12.3,29.44,ESE,112,2.7,4.0,53,0.00,,,0.00,VWS V14.01,2013-04-06 06:04:00,
2013-04-06 02:05:00,27.0,11.3,29.47,ESE,112,3.6,3.6,51,0.00,,,0.00,VWS V14.01,2013-04-06 06:05:00,
2013-04-06 02:06:00,27.1,12.3,29.44,SE,135,0.0,3.1,53,0.00,,,0.00,VWS V14.01,2013-04-06 06:06:00,
2013-04-06 02:07:00,27.1,12.3,29.44,SE,135,0.0,0.0,53,0.00,,,0.00,VWS V14.01,2013-04-06 06:07:00,
2013-04-06 02:08:00,27.1,12.3,29.44,ESE,112,0.0,1.1,53,0.00,,,0.00,VWS V14.01,2013-04-06 06:08:00,
2013-04-06 02:09:00,27.1,12.3,29.44,SSE,158,0.0,2.5,53,0.00,,,0.00,VWS V14.01,2013-04-06 06:09:00,
2013-04-06 02:10:00,27.0,11.3,29.47,ESE,112,3.4,3.4,51,0.00,,,0.00,VWS V14.01,2013-04-06 06:10:00,
2013-04-06 02:11:00,27.1,11.9,29.44,ESE,112,2.5,2.7,52,0.00,,,0.00,VWS V14.01,2013-04-06 06:11:00,
2013-04-06 02:12:00,27.1,11.9,29.44,SE,135,2.0,2.5,52,0.00,,,0.00,VWS V14.01,2013-04-06 06:12:00,
2013-04-06 02:13:00,27.1,12.3,29.44,ESE,112,2.0,2.0,53,0.00,,,0.00,VWS V14.01,2013-04-06 06:13:00,
2013-04-06 02:14:00,27.1,12.3,29.44,SE,135,0.9,2.0,53,0.00,,,0.00,VWS V14.01,2013-04-06 06:14:00,
2013-04-06 02:15:00,27.0,11.3,29.47,ENE,68,2.9,3.8,51,0.00,,,0.00,VWS V14.01,2013-04-06 06:15:00,
2013-04-06 02:16:00,27.1,12.3,29.44,ESE,112,2.7,2.7,53,0.00,,,0.00,VWS V14.01,2013-04-06 06:16:00,
2013-04-06 02:17:00,27.1,12.3,29.44,ESE,112,1.6,2.7,53,0.00,,,0.00,VWS V14.01,2013-04-06 06:17:00,
2013-04-06 02:18:00,27.1,12.3,29.44,ESE,112,2.0,2.5,53,0.00,,,0.00,VWS V14.01,2013-04-06 06:18:00,
2013-04-06 02:19:00,27.1,12.3,29.44,ESE,112,2.2,2.2,53,0.00,,,0.00,VWS V14.01,2013-04-06 06:19:00,
2013-04-06 02:20:00,27.1,11.9,29.47,ESE,112,2.5,3.4,52,0.00,,,0.00,VWS V14.01,2013-04-06 06:20:00,
2013-04-06 02:21:00,27.0,12.1,29.44,East,90,2.5,2.7,53,0.00,,,0.00,VWS V14.01,2013-04-06 06:21:00,
2013-04-06 02:22:00,27.0,12.1,29.44,East,90,2.2,2.5,53,0.00,,,0.00,VWS V14.01,2013-04-06 06:22:00,
2013-04-06 02:23:00,27.0,12.1,29.44,ESE,112,2.5,2.7,53,0.00,,,0.00,VWS V14.01,2013-04-06 06:23:00,
2013-04-06 02:24:00,27.0,12.1,29.44,SE,135,2.0,2.7,53,0.00,,,0.00,VWS V14.01,2013-04-06 06:24:00,
2013-04-06 02:25:00,27.1,11.9,29.47,ESE,112,2.9,2.9,52,0.00,,,0.00,VWS V14.01,2013-04-06 06:25:00,
2013-04-06 02:26:00,27.0,12.1,29.44,ESE,112,2.5,2.5,53,0.00,,,0.00,VWS V14.01,2013-04-06 06:26:00,
2013-04-06 02:27:00,27.0,12.1,29.44,ESE,112,2.2,2.5,53,0.00,,,0.00,VWS V14.01,2013-04-06 06:27:00,
2013-04-06 02:28:00,27.0,12.1,29.44,ESE,112,2.0,2.9,53,0.00,,,0.00,VWS V14.01,2013-04-06 06:28:00,
2013-04-06 02:29:00,27.0,12.1,29.44,East,90,2.2,2.9,53,0.00,,,0.00,VWS V14.01,2013-04-06 06:29:00,
2013-04-06 02:30:00,27.0,12.1,29.44,East,90,0.9,2.2,53,0.00,,,0.00,VWS V14.01,2013-04-06 06:30:00,
2013-04-06 02:31:00,27.1,11.9,29.47,East,90,2.7,3.1,52,0.00,,,0.00,VWS V14.01,2013-04-06 06:31:00,
2013-04-06 02:32:00,27.0,12.1,29.44,ESE,112,3.4,3.6,53,0.00,,,0.00,VWS V14.01,2013-04-06 06:32:00,
2013-04-06 02:33:00,27.0,12.1,29.44,SE,135,2.0,3.4,53,0.00,,,0.00,VWS V14.01,2013-04-06 06:33:00,
2013-04-06 02:34:00,27.0,12.1,29.44,SSE,158,1.1,3.6,53,0.00,,,0.00,VWS V14.01,2013-04-06 06:34:00,
2013-04-06 02:35:00,27.0,12.1,29.44,SSE,158,1.1,1.1,53,0.00,,,0.00,VWS V14.01,2013-04-06 06:35:00,
2013-04-06 02:36:00,27.1,11.9,29.47,ESE,112,2.9,3.4,52,0.00,,,0.00,VWS V14.01,2013-04-06 06:36:00,
2013-04-06 02:37:00,27.1,12.3,29.47,SSE,158,1.1,3.1,53,0.00,,,0.00,VWS V14.01,2013-04-06 06:37:00,
2013-04-06 02:38:00,27.1,12.3,29.47,ESE,112,2.9,2.9,53,0.00,,,0.00,VWS V14.01,2013-04-06 06:38:00,
2013-04-06 02:39:00,27.1,12.3,29.47,ESE,112,1.6,2.9,53,0.00,,,0.00,VWS V14.01,2013-04-06 06:39:00,
2013-04-06 02:40:00,27.1,12.3,29.47,SE,135,1.1,1.6,53,0.00,,,0.00,VWS V14.01,2013-04-06 06:40:00,
2013-04-06 02:41:00,26.8,12.0,29.44,ESE,112,2.7,2.7,53,0.00,,,0.00,VWS V14.01,2013-04-06 06:41:00,
2013-04-06 02:42:00,27.3,12.0,29.47,SE,135,3.6,3.6,52,0.00,,,0.00,VWS V14.01,2013-04-06 06:42:00,
2013-04-06 02:43:00,27.3,12.0,29.47,ESE,112,1.6,3.6,52,0.00,,,0.00,VWS V14.01,2013-04-06 06:43:00,
2013-04-06 02:44:00,27.3,12.0,29.47,ESE,112,1.6,2.7,52,0.00,,,0.00,VWS V14.01,2013-04-06 06:44:00,
2013-04-06 02:45:00,27.3,12.0,29.47,East,90,2.7,4.3,52,0.00,,,0.00,VWS V14.01,2013-04-06 06:45:00,
2013-04-06 02:46:00,27.3,12.0,29.47,ESE,112,3.1,3.8,52,0.00,,,0.00,VWS V14.01,2013-04-06 06:46:00,
2013-04-06 02:47:00,26.6,11.8,29.44,East,90,2.2,2.5,53,0.00,,,0.00,VWS V14.01,2013-04-06 06:47:00,
2013-04-06 02:48:00,27.3,12.0,29.47,ENE,68,1.6,3.1,52,0.00,,,0.00,VWS V14.01,2013-04-06 06:48:00,
2013-04-06 02:49:00,27.3,12.0,29.47,SE,135,2.7,2.7,52,0.00,,,0.00,VWS V14.01,2013-04-06 06:49:00,
2013-04-06 02:50:00,27.3,12.0,29.47,SE,135,2.7,2.7,52,0.00,,,0.00,VWS V14.01,2013-04-06 06:50:00,
2013-04-06 02:51:00,27.3,12.0,29.47,SE,135,2.0,2.7,52,0.00,,,0.00,VWS V14.01,2013-04-06 06:51:00,
2013-04-06 02:52:00,26.8,12.0,29.44,ESE,112,4.0,4.0,53,0.00,,,0.00,VWS V14.01,2013-04-06 06:52:00,
2013-04-06 02:53:00,27.3,12.0,29.47,SSE,158,3.6,3.6,52,0.00,,,0.00,VWS V14.01,2013-04-06 06:53:00,
2013-04-06 02:54:00,27.3,12.0,29.47,SSE,158,2.7,3.6,52,0.00,,,0.00,VWS V14.01,2013-04-06 06:54:00,
2013-04-06 02:55:00,27.5,12.2,29.47,ESE,112,2.7,2.9,52,0.00,,,0.00,VWS V14.01,2013-04-06 06:55:00,
2013-04-06 02:56:00,27.5,12.2,29.47,SSE,158,0.9,3.6,52,0.00,,,0.00,VWS V14.01,2013-04-06 06:56:00,
2013-04-06 02:57:00,27.0,12.1,29.44,SSE,158,3.6,3.6,53,0.00,,,0.00,VWS V14.01,2013-04-06 06:57:00,
2013-04-06 02:58:00,27.5,12.2,29.47,ESE,112,2.2,2.2,52,0.00,,,0.00,VWS V14.01,2013-04-06 06:58:00,
2013-04-06 02:59:00,27.5,12.2,29.47,SE,135,1.6,2.2,52,0.00,,,0.00,VWS V14.01,2013-04-06 06:59:00,
2013-04-06 03:00:00,27.5,12.2,29.47,East,90,1.3,2.5,52,0.00,,,0.00,VWS V14.01,2013-04-06 07:00:00,
2013-04-06 03:01:00,27.5,12.2,29.47,SSE,158,2.0,2.9,52,0.00,,,0.00,VWS V14.01,2013-04-06 07:01:00,
2013-04-06 03:02:00,27.0,12.1,29.44,SSE,158,1.3,2.9,53,0.00,,,0.00,VWS V14.01,2013-04-06 07:02:00,
2013-04-06 03:03:00,27.5,12.2,29.47,ESE,112,2.0,2.5,52,0.00,,,0.00,VWS V14.01,2013-04-06 07:03:00,
2013-04-06 03:04:00,27.5,12.2,29.47,ESE,112,2.0,2.9,52,0.00,,,0.00,VWS V14.01,2013-04-06 07:04:00,
2013-04-06 03:05:00,27.5,12.2,29.47,SE,135,0.9,2.5,52,0.00,,,0.00,VWS V14.01,2013-04-06 07:05:00,
2013-04-06 03:06:00,27.5,12.2,29.47,SSE,158,2.2,2.5,52,0.00,,,0.00,VWS V14.01,2013-04-06 07:06:00,
2013-04-06 03:07:00,27.1,12.3,29.44,SE,135,0.0,0.0,53,0.00,,,0.00,VWS V14.01,2013-04-06 07:07:00,
2013-04-06 03:08:00,27.5,12.2,29.47,ESE,112,2.7,2.7,52,0.00,,,0.00,VWS V14.01,2013-04-06 07:08:00,
2013-04-06 03:09:00,27.5,12.2,29.47,ESE,112,2.5,3.4,52,0.00,,,0.00,VWS V14.01,2013-04-06 07:09:00,
2013-04-06 03:10:00,27.5,12.2,29.47,ESE,112,2.0,2.7,52,0.00,,,0.00,VWS V14.01,2013-04-06 07:10:00,
2013-04-06 03:11:00,27.5,12.2,29.47,ESE,112,3.1,4.7,52,0.00,,,0.00,VWS V14.01,2013-04-06 07:11:00,
2013-04-06 03:12:00,27.1,11.9,29.44,ESE,112,1.6,2.0,52,0.00,,,0.00,VWS V14.01,2013-04-06 07:12:00,
2013-04-06 03:13:00,27.5,12.2,29.47,East,90,2.7,2.9,52,0.00,,,0.00,VWS V14.01,2013-04-06 07:13:00,
2013-04-06 03:14:00,27.5,12.2,29.47,East,90,1.3,2.7,52,0.00,,,0.00,VWS V14.01,2013-04-06 07:14:00,
2013-04-06 03:15:00,27.5,12.2,29.47,East,90,2.2,2.2,52,0.00,,,0.00,VWS V14.01,2013-04-06 07:15:00,
2013-04-06 03:16:00,27.3,12.0,29.47,East,90,2.2,2.5,52,0.00,,,0.00,VWS V14.01,2013-04-06 07:16:00,
2013-04-06 03:17:00,27.1,12.3,29.44,ESE,112,2.5,2.5,53,0.00,,,0.00,VWS V14.01,2013-04-06 07:17:00,
2013-04-06 03:18:00,27.3,12.0,29.47,ESE,112,1.1,1.1,52,0.00,,,0.00,VWS V14.01,2013-04-06 07:18:00,
2013-04-06 03:19:00,27.3,12.0,29.47,ESE,112,1.1,1.6,52,0.00,,,0.00,VWS V14.01,2013-04-06 07:19:00,
2013-04-06 03:20:00,27.3,12.0,29.47,ESE,112,0.9,1.6,52,0.00,,,0.00,VWS V14.01,2013-04-06 07:20:00,
2013-04-06 03:21:00,27.1,11.9,29.47,SE,135,2.9,2.9,52,0.00,,,0.00,VWS V14.01,2013-04-06 07:21:00,
2013-04-06 03:22:00,27.1,11.9,29.44,SE,135,0.0,2.9,52,0.00,,,0.00,VWS V14.01,2013-04-06 07:22:00,
2013-04-06 03:23:00,27.0,12.1,29.44,ESE,112,2.5,2.7,53,0.00,,,0.00,VWS V14.01,2013-04-06 07:23:00,
2013-04-06 03:24:00,27.3,12.0,29.44,ESE,112,2.7,2.7,52,0.00,,,0.00,VWS V14.01,2013-04-06 07:24:00,
2013-04-06 03:25:00,27.3,12.0,29.44,ESE,112,0.0,2.7,52,0.00,,,0.00,VWS V14.01,2013-04-06 07:25:00,
2013-04-06 03:26:00,27.3,12.0,29.44,ESE,112,0.0,0.0,52,0.00,,,0.00,VWS V14.01,2013-04-06 07:26:00,
2013-04-06 03:27:00,27.3,11.6,29.44,ENE,68,1.3,2.0,51,0.00,,,0.00,VWS V14.01,2013-04-06 07:27:00,
2013-04-06 03:28:00,27.0,12.1,29.44,ESE,112,2.0,2.9,53,0.00,,,0.00,VWS V14.01,2013-04-06 07:28:00,
2013-04-06 03:29:00,27.3,12.0,29.44,East,90,0.0,0.0,52,0.00,,,0.00,VWS V14.01,2013-04-06 07:29:00,
2013-04-06 03:30:00,27.3,12.0,29.44,ESE,112,0.0,0.0,52,0.00,,,0.00,VWS V14.01,2013-04-06 07:30:00,
2013-04-06 03:31:00,27.5,11.8,29.44,SE,135,2.7,2.7,51,0.00,,,0.00,VWS V14.01,2013-04-06 07:31:00,
2013-04-06 03:33:00,27.0,12.1,29.44,ESE,112,2.7,3.4,53,0.00,,,0.00,VWS V14.01,2013-04-06 07:33:00,
2013-04-06 03:34:00,27.5,11.8,29.44,East,90,2.7,3.6,51,0.00,,,0.00,VWS V14.01,2013-04-06 07:34:00,
2013-04-06 03:35:00,27.5,11.8,29.44,ENE,68,2.5,3.8,51,0.00,,,0.00,VWS V14.01,2013-04-06 07:35:00,
2013-04-06 03:36:00,27.5,11.8,29.44,SE,135,2.2,4.3,51,0.00,,,0.00,VWS V14.01,2013-04-06 07:36:00,
2013-04-06 03:37:00,27.5,11.8,29.44,ENE,68,2.9,2.9,51,0.00,,,0.00,VWS V14.01,2013-04-06 07:37:00,
2013-04-06 03:38:00,27.5,11.8,29.44,ENE,68,0.0,3.1,51,0.00,,,0.00,VWS V14.01,2013-04-06 07:38:00,
2013-04-06 03:39:00,27.1,12.3,29.47,SSE,158,2.7,2.9,53,0.00,,,0.00,VWS V14.01,2013-04-06 07:39:00,
2013-04-06 03:40:00,27.5,11.8,29.44,SE,135,0.0,3.8,51,0.00,,,0.00,VWS V14.01,2013-04-06 07:40:00,
2013-04-06 03:41:00,27.5,11.8,29.44,SSW,202,0.9,1.3,51,0.00,,,0.00,VWS V14.01,2013-04-06 07:41:00,
2013-04-06 03:42:00,27.5,11.8,29.44,SE,135,0.9,2.0,51,0.00,,,0.00,VWS V14.01,2013-04-06 07:42:00,
2013-04-06 03:43:00,27.5,11.8,29.44,SE,135,0.0,0.9,51,0.00,,,0.00,VWS V14.01,2013-04-06 07:43:00,
2013-04-06 03:44:00,27.3,12.0,29.47,ESE,112,1.6,2.7,52,0.00,,,0.00,VWS V14.01,2013-04-06 07:44:00,
2013-04-06 03:45:00,27.5,11.8,29.44,SSE,158,1.6,3.4,51,0.00,,,0.00,VWS V14.01,2013-04-06 07:45:00,
2013-04-06 03:46:00,27.5,11.8,29.44,ESE,112,1.1,2.2,51,0.00,,,0.00,VWS V14.01,2013-04-06 07:46:00,
2013-04-06 03:47:00,27.5,11.8,29.44,East,90,2.5,2.5,51,0.00,,,0.00,VWS V14.01,2013-04-06 07:47:00,
2013-04-06 03:48:00,27.5,11.8,29.44,ESE,112,1.3,2.7,51,0.00,,,0.00,VWS V14.01,2013-04-06 07:48:00,
2013-04-06 03:49:00,27.3,12.0,29.47,ENE,68,1.6,1.6,52,0.00,,,0.00,VWS V14.01,2013-04-06 07:49:00,
2013-04-06 03:50:00,27.5,11.8,29.44,East,90,1.1,2.5,51,0.00,,,0.00,VWS V14.01,2013-04-06 07:50:00,
2013-04-06 03:51:00,27.5,11.8,29.44,SE,135,2.9,2.9,51,0.00,,,0.00,VWS V14.01,2013-04-06 07:51:00,
2013-04-06 03:52:00,27.5,11.8,29.44,SSE,158,0.0,2.9,51,0.00,,,0.00,VWS V14.01,2013-04-06 07:52:00,
2013-04-06 03:53:00,27.5,11.8,29.44,SSE,158,0.0,0.0,51,0.00,,,0.00,VWS V14.01,2013-04-06 07:53:00,
2013-04-06 03:54:00,27.5,12.2,29.47,SE,135,2.7,2.7,52,0.00,,,0.00,VWS V14.01,2013-04-06 07:54:00,
2013-04-06 03:55:00,27.5,11.8,29.44,ESE,112,0.0,0.0,51,0.00,,,0.00,VWS V14.01,2013-04-06 07:55:00,
2013-04-06 03:56:00,27.5,11.8,29.44,ESE,112,2.0,2.0,51,0.00,,,0.00,VWS V14.01,2013-04-06 07:56:00,
2013-04-06 03:57:00,27.5,11.8,29.44,SE,135,3.4,3.4,51,0.00,,,0.00,VWS V14.01,2013-04-06 07:57:00,
2013-04-06 03:58:00,27.5,11.8,29.44,SSE,158,2.0,3.6,51,0.00,,,0.00,VWS V14.01,2013-04-06 07:58:00,
2013-04-06 03:59:00,27.5,12.2,29.47,ESE,112,1.6,1.6,52,0.00,,,0.00,VWS V14.01,2013-04-06 07:59:00,
2013-04-06 04:01:00,27.5,11.8,29.44,WSW,248,0.0,2.2,51,0.00,,,0.00,VWS V14.01,2013-04-06 08:01:00,
2013-04-06 04:02:00,27.7,11.9,29.44,SE,135,4.0,4.7,51,0.00,,,0.00,VWS V14.01,2013-04-06 08:02:00,
2013-04-06 04:03:00,27.7,11.5,29.44,SSE,158,1.6,4.0,50,0.00,,,0.00,VWS V14.01,2013-04-06 08:03:00,
2013-04-06 04:04:00,27.5,12.2,29.47,SSE,158,0.9,2.5,52,0.00,,,0.00,VWS V14.01,2013-04-06 08:04:00,
2013-04-06 04:05:00,27.7,11.5,29.44,East,90,2.5,3.4,50,0.00,,,0.00,VWS V14.01,2013-04-06 08:05:00,
2013-04-06 04:06:00,27.7,11.5,29.44,SSE,158,1.1,2.5,50,0.00,,,0.00,VWS V14.01,2013-04-06 08:06:00,
2013-04-06 04:07:00,27.7,11.5,29.44,East,90,0.9,2.0,50,0.00,,,0.00,VWS V14.01,2013-04-06 08:07:00,
2013-04-06 04:08:00,27.7,11.5,29.44,ESE,112,3.6,3.6,50,0.00,,,0.00,VWS V14.01,2013-04-06 08:08:00,
2013-04-06 04:09:00,27.7,11.5,29.44,SE,135,2.0,3.6,50,0.00,,,0.00,VWS V14.01,2013-04-06 08:09:00,
2013-04-06 04:10:00,27.5,12.2,29.47,ESE,112,2.5,2.7,52,0.00,,,0.00,VWS V14.01,2013-04-06 08:10:00,
2013-04-06 04:11:00,27.9,11.6,29.44,East,90,2.9,4.3,50,0.00,,,0.00,VWS V14.01,2013-04-06 08:11:00,
2013-04-06 04:12:00,27.9,11.6,29.44,SSE,158,3.8,3.8,50,0.00,,,0.00,VWS V14.01,2013-04-06 08:12:00,
2013-04-06 04:13:00,27.9,11.6,29.44,ESE,112,2.9,3.8,50,0.00,,,0.00,VWS V14.01,2013-04-06 08:13:00,
2013-04-06 04:14:00,27.9,11.6,29.44,East,90,0.9,3.4,50,0.00,,,0.00,VWS V14.01,2013-04-06 08:14:00,
2013-04-06 04:15:00,27.5,12.2,29.47,East,90,2.2,2.2,52,0.00,,,0.00,VWS V14.01,2013-04-06 08:15:00,
2013-04-06 04:16:00,27.9,11.6,29.44,East,90,3.1,3.1,50,0.00,,,0.00,VWS V14.01,2013-04-06 08:16:00,
2013-04-06 04:17:00,27.9,11.2,29.44,ESE,112,2.7,3.6,49,0.00,,,0.00,VWS V14.01,2013-04-06 08:17:00,
2013-04-06 04:18:00,27.9,11.2,29.44,ENE,68,2.0,2.7,49,0.00,,,0.00,VWS V14.01,2013-04-06 08:18:00,
2013-04-06 04:19:00,27.9,11.6,29.44,NE,45,2.0,2.9,50,0.00,,,0.00,VWS V14.01,2013-04-06 08:19:00,
2013-04-06 04:20:00,27.3,12.0,29.47,ESE,112,0.9,1.6,52,0.00,,,0.00,VWS V14.01,2013-04-06 08:20:00,
2013-04-06 04:21:00,27.9,11.6,29.44,SSE,158,0.0,2.0,50,0.00,,,0.00,VWS V14.01,2013-04-06 08:21:00,
2013-04-06 04:22:00,27.9,11.6,29.44,East,90,1.6,2.5,50,0.00,,,0.00,VWS V14.01,2013-04-06 08:22:00,
2013-04-06 04:23:00,27.9,11.6,29.44,East,90,3.4,3.4,50,0.00,,,0.00,VWS V14.01,2013-04-06 08:23:00,
2013-04-06 04:24:00,27.9,11.6,29.44,SSE,158,1.6,3.4,50,0.00,,,0.00,VWS V14.01,2013-04-06 08:24:00,
2013-04-06 04:25:00,27.3,11.6,29.44,East,90,1.3,2.7,51,0.00,,,0.00,VWS V14.01,2013-04-06 08:25:00,
2013-04-06 04:26:00,27.7,11.5,29.44,East,90,1.6,1.6,50,0.00,,,0.00,VWS V14.01,2013-04-06 08:26:00,
2013-04-06 04:28:00,27.7,11.9,29.44,SSE,158,3.1,3.4,51,0.00,,,0.00,VWS V14.01,2013-04-06 08:28:00,
2013-04-06 04:29:00,27.7,11.9,29.44,ESE,112,1.6,3.1,51,0.00,,,0.00,VWS V14.01,2013-04-06 08:29:00,
2013-04-06 04:30:00,27.5,11.8,29.44,SE,135,2.2,2.2,51,0.00,,,0.00,VWS V14.01,2013-04-06 08:30:00,
2013-04-06 04:31:00,27.7,11.5,29.44,ESE,112,3.8,4.9,50,0.00,,,0.00,VWS V14.01,2013-04-06 08:31:00,
2013-04-06 04:32:00,27.7,11.5,29.44,ENE,68,2.0,3.8,50,0.00,,,0.00,VWS V14.01,2013-04-06 08:32:00,
2013-04-06 04:33:00,27.7,11.5,29.44,ENE,68,0.0,2.0,50,0.00,,,0.00,VWS V14.01,2013-04-06 08:33:00,
2013-04-06 04:34:00,27.5,11.8,29.44,ENE,68,2.2,2.2,51,0.00,,,0.00,VWS V14.01,2013-04-06 08:34:00,
2013-04-06 04:35:00,27.5,11.8,29.44,ESE,112,2.7,2.7,51,0.00,,,0.00,VWS V14.01,2013-04-06 08:35:00,
2013-04-06 04:36:00,27.5,11.8,29.44,ENE,68,2.0,2.2,51,0.00,,,0.00,VWS V14.01,2013-04-06 08:36:00,
2013-04-06 04:37:00,27.5,11.8,29.44,ENE,68,1.1,2.0,51,0.00,,,0.00,VWS V14.01,2013-04-06 08:37:00,
2013-04-06 04:38:00,27.5,11.8,29.44,ENE,68,1.1,1.1,51,0.00,,,0.00,VWS V14.01,2013-04-06 08:38:00,
2013-04-06 04:40:00,27.5,11.8,29.44,NE,45,0.0,0.0,51,0.00,,,0.00,VWS V14.01,2013-04-06 08:40:00,
2013-04-06 04:41:00,27.5,11.8,29.44,ENE,68,1.6,2.2,51,0.00,,,0.00,VWS V14.01,2013-04-06 08:41:00,
2013-04-06 04:42:00,27.3,12.0,29.44,East,90,0.0,1.6,52,0.00,,,0.00,VWS V14.01,2013-04-06 08:42:00,
2013-04-06 04:44:00,27.5,11.8,29.44,East,90,1.3,2.0,51,0.00,,,0.00,VWS V14.01,2013-04-06 08:44:00,
2013-04-06 04:45:00,27.5,11.8,29.44,ENE,68,2.0,2.0,51,0.00,,,0.00,VWS V14.01,2013-04-06 08:45:00,
2013-04-06 04:50:00,27.5,11.8,29.44,East,90,1.1,2.5,51,0.00,,,0.00,VWS V14.01,2013-04-06 08:50:00,
2013-04-06 04:55:00,27.5,11.8,29.44,SSE,158,0.0,0.0,51,0.00,,,0.00,VWS V14.01,2013-04-06 08:55:00,
2013-04-06 05:01:00,27.5,11.8,29.44,WSW,248,0.0,2.2,51,0.00,,,0.00,VWS V14.01,2013-04-06 09:01:00,
2013-04-06 05:07:00,27.7,11.5,29.44,East,90,0.9,2.0,50,0.00,,,0.00,VWS V14.01,2013-04-06 09:07:00,
2013-04-06 05:12:00,27.9,11.6,29.44,SSE,158,3.8,3.8,50,0.00,,,0.00,VWS V14.01,2013-04-06 09:12:00,
2013-04-06 05:17:00,27.9,11.2,29.44,SE,135,2.7,3.6,49,0.00,,,0.00,VWS V14.01,2013-04-06 09:17:00,
2013-04-06 05:23:00,27.9,11.6,29.44,East,90,3.4,3.4,50,0.00,,,0.00,VWS V14.01,2013-04-06 09:23:00,
2013-04-06 05:28:00,27.7,11.9,29.44,SSE,158,3.1,3.4,51,0.00,,,0.00,VWS V14.01,2013-04-06 09:28:00,
2013-04-06 05:33:00,27.7,11.5,29.44,ENE,68,0.0,2.0,50,0.00,,,0.00,VWS V14.01,2013-04-06 09:33:00,
2013-04-06 05:38:00,27.5,11.8,29.44,ENE,68,2.0,2.0,51,0.00,,,0.00,VWS V14.01,2013-04-06 09:38:00,
2013-04-06 05:43:00,27.5,11.8,29.44,East,90,2.0,2.0,51,0.00,,,0.00,VWS V14.01,2013-04-06 09:43:00,
2013-04-06 05:48:00,27.3,12.0,29.44,East,90,2.0,2.0,52,0.00,,,0.00,VWS V14.01,2013-04-06 09:48:00,
2013-04-06 05:54:00,27.1,12.3,29.44,East,90,2.2,2.7,53,0.00,,,0.00,VWS V14.01,2013-04-06 09:54:00,
2013-04-06 05:59:00,27.0,12.1,29.44,East,90,0.0,0.0,53,0.00,,,0.00,VWS V14.01,2013-04-06 09:59:00,
2013-04-06 06:04:00,27.0,12.1,29.44,ENE,68,0.0,0.0,53,0.00,,,0.00,VWS V14.01,2013-04-06 10:04:00,
2013-04-06 06:09:00,26.8,12.0,29.41,ENE,68,0.0,0.0,53,0.00,,,0.00,VWS V14.01,2013-04-06 10:09:00,
2013-04-06 06:14:00,27.0,12.6,29.41,East,90,0.0,1.1,54,0.00,,,0.00,VWS V14.01,2013-04-06 10:14:00,
2013-04-06 06:20:00,26.8,12.4,29.41,ENE,68,0.0,0.0,54,0.00,,,0.00,VWS V14.01,2013-04-06 10:20:00,
2013-04-06 06:25:00,26.8,12.4,29.41,ESE,112,0.0,0.0,54,0.00,,,0.00,VWS V14.01,2013-04-06 10:25:00,
2013-04-06 06:30:00,27.0,12.6,29.41,SSW,202,0.0,0.0,54,0.00,,,0.00,VWS V14.01,2013-04-06 10:30:00,
2013-04-06 06:33:00,28.2,12.0,29.44,SE,135,3.4,6.3,50,0.00,,,0.00,VWS V14.01,2013-04-06 10:33:00,
2013-04-06 06:35:00,27.1,12.7,29.41,WSW,248,0.0,0.0,54,0.00,,,0.00,VWS V14.01,2013-04-06 10:35:00,
2013-04-06 06:36:00,28.2,11.5,29.44,SSE,158,2.9,2.9,49,0.00,,,0.00,VWS V14.01,2013-04-06 10:36:00,
2013-04-06 06:37:00,28.2,11.5,29.44,SSE,158,2.9,2.9,49,0.00,,,0.00,VWS V14.01,2013-04-06 10:37:00,
2013-04-06 06:38:00,28.4,11.7,29.44,East,90,3.8,4.3,49,0.00,,,0.00,VWS V14.01,2013-04-06 10:38:00,
2013-04-06 06:39:00,28.4,11.7,29.44,East,90,3.8,4.3,49,0.00,,,0.00,VWS V14.01,2013-04-06 10:39:00,
2013-04-06 06:40:00,27.1,12.3,29.44,NE,45,2.7,3.4,53,0.00,,,0.00,VWS V14.01,2013-04-06 10:40:00,
2013-04-06 06:41:00,28.4,11.7,29.44,East,90,3.4,4.0,49,0.00,,,0.00,VWS V14.01,2013-04-06 10:41:00,
2013-04-06 06:43:00,28.4,11.7,29.44,ESE,112,2.0,2.0,49,0.00,,,0.00,VWS V14.01,2013-04-06 10:43:00,
2013-04-06 06:45:00,27.3,12.5,29.44,ESE,112,1.3,2.0,53,0.00,,,0.00,VWS V14.01,2013-04-06 10:45:00,
2013-04-06 06:47:00,28.6,11.9,29.44,East,90,2.9,2.9,49,0.00,,,0.00,VWS V14.01,2013-04-06 10:47:00,
2013-04-06 06:50:00,28.6,11.4,29.44,ENE,68,3.4,5.6,48,0.00,,,0.00,VWS V14.01,2013-04-06 10:50:00,
2013-04-06 06:51:00,27.3,12.5,29.44,East,90,3.6,3.6,53,0.00,,,0.00,VWS V14.01,2013-04-06 10:51:00,
2013-04-06 06:52:00,28.6,11.4,29.44,East,90,1.6,5.6,48,0.00,,,0.00,VWS V14.01,2013-04-06 10:52:00,
2013-04-06 06:53:00,28.6,11.4,29.44,SE,135,5.8,5.8,48,0.00,,,0.00,VWS V14.01,2013-04-06 10:53:00,
2013-04-06 06:54:00,28.6,11.4,29.44,East,90,3.6,5.8,48,0.00,,,0.00,VWS V14.01,2013-04-06 10:54:00,
2013-04-06 06:56:00,27.5,12.2,29.44,ENE,68,1.6,1.6,52,0.00,,,0.00,VWS V14.01,2013-04-06 10:56:00,
2013-04-06 07:01:00,27.7,12.4,29.44,NNE,22,1.6,3.6,52,0.00,,,0.00,VWS V14.01,2013-04-06 11:01:00,
2013-04-06 07:06:00,27.7,12.4,29.44,ESE,112,4.7,4.7,52,0.00,,,0.00,VWS V14.01,2013-04-06 11:06:00,
2013-04-06 07:12:00,27.9,12.1,29.44,SE,135,7.4,7.6,51,0.00,,,0.00,VWS V14.01,2013-04-06 11:12:00,
2013-04-06 07:17:00,27.9,12.1,29.44,SE,135,6.0,6.5,51,0.00,,,0.00,VWS V14.01,2013-04-06 11:17:00,
2013-04-06 07:22:00,27.9,11.6,29.44,East,90,1.1,4.3,50,0.00,,,0.00,VWS V14.01,2013-04-06 11:22:00,
2013-04-06 07:27:00,28.0,12.3,29.44,ESE,112,4.9,4.9,51,0.00,,,0.00,VWS V14.01,2013-04-06 11:27:00,
2013-04-06 07:32:00,28.2,12.0,29.44,East,90,3.4,5.4,50,0.00,,,0.00,VWS V14.01,2013-04-06 11:32:00,
2013-04-06 07:37:00,28.2,11.5,29.44,SSE,158,2.9,2.9,49,0.00,,,0.00,VWS V14.01,2013-04-06 11:37:00,
2013-04-06 07:42:00,28.4,11.7,29.44,ESE,112,2.5,4.3,49,0.00,,,0.00,VWS V14.01,2013-04-06 11:42:00,
2013-04-06 07:48:00,28.6,11.9,29.44,East,90,2.9,2.9,49,0.00,,,0.00,VWS V14.01,2013-04-06 11:48:00,
2013-04-06 07:53:00,28.6,11.4,29.44,East,90,1.3,2.9,48,0.00,,,0.00,VWS V14.01,2013-04-06 11:53:00,
2013-04-06 07:58:00,28.8,11.6,29.44,East,90,1.6,1.6,48,0.00,,,0.00,VWS V14.01,2013-04-06 11:58:00,
2013-04-06 08:03:00,28.9,11.2,29.44,ESE,112,3.4,3.4,47,0.00,,,0.00,VWS V14.01,2013-04-06 12:03:00,
2013-04-06 08:09:00,29.3,11.1,29.41,ENE,68,2.9,3.8,46,0.00,,,0.00,VWS V14.01,2013-04-06 12:09:00,
2013-04-06 08:14:00,29.5,10.3,29.41,SSE,158,7.6,7.6,44,0.00,,,0.00,VWS V14.01,2013-04-06 12:14:00,
2013-04-06 08:19:00,29.8,10.6,29.41,ESE,112,3.8,6.0,44,0.00,,,0.00,VWS V14.01,2013-04-06 12:19:00,
2013-04-06 08:24:00,30.0,10.2,29.41,East,90,6.3,7.4,43,0.00,,,0.00,VWS V14.01,2013-04-06 12:24:00,
2013-04-06 08:29:00,30.4,10.1,29.41,ESE,112,6.0,6.0,42,0.00,,,0.00,VWS V14.01,2013-04-06 12:29:00,
2013-04-06 08:34:00,30.7,10.4,29.41,ENE,68,2.5,6.5,42,0.00,,,0.00,VWS V14.01,2013-04-06 12:34:00,
2013-04-06 08:40:00,30.9,10.0,29.41,SE,135,3.1,4.9,41,0.00,,,0.00,VWS V14.01,2013-04-06 12:40:00,
2013-04-06 08:45:00,31.1,10.2,29.41,ESE,112,3.1,5.8,41,0.00,,,0.00,VWS V14.01,2013-04-06 12:45:00,
2013-04-06 08:50:00,31.1,10.2,29.41,SSE,158,4.7,4.7,41,0.00,,,0.00,VWS V14.01,2013-04-06 12:50:00,
2013-04-06 08:55:00,31.1,10.2,29.41,ENE,68,4.0,4.3,41,0.00,,,0.00,VWS V14.01,2013-04-06 12:55:00,
2013-04-06 09:00:00,31.5,10.5,29.41,ENE,68,5.6,6.7,41,0.00,,,0.00,VWS V14.01,2013-04-06 13:00:00,
2013-04-06 09:05:00,31.6,10.6,29.41,SE,135,4.9,6.3,41,0.00,,,0.00,VWS V14.01,2013-04-06 13:05:00,
2013-04-06 09:10:00,31.8,10.8,29.38,ESE,112,2.0,4.7,41,0.00,,,0.00,VWS V14.01,2013-04-06 13:10:00,
2013-04-06 09:15:00,31.8,10.8,29.38,ESE,112,2.7,2.7,41,0.00,,,0.00,VWS V14.01,2013-04-06 13:15:00,
2013-04-06 09:20:00,32.0,11.0,29.38,NE,45,4.9,4.9,41,0.00,,,0.00,VWS V14.01,2013-04-06 13:20:00,
2013-04-06 09:25:00,32.0,11.0,29.38,SE,135,3.8,4.0,41,0.00,,,0.00,VWS V14.01,2013-04-06 13:25:00,
2013-04-06 09:30:00,32.2,11.1,29.38,ESE,112,3.1,4.9,41,0.00,,,0.00,VWS V14.01,2013-04-06 13:30:00,
2013-04-06 09:35:00,32.4,11.3,29.38,East,90,2.9,6.5,41,0.00,,,0.00,VWS V14.01,2013-04-06 13:35:00,
2013-04-06 09:40:00,32.5,11.5,29.38,SE,135,4.9,4.9,41,0.00,,,0.00,VWS V14.01,2013-04-06 13:40:00,
2013-04-06 09:46:00,32.2,12.2,29.38,ESE,112,5.8,5.8,43,0.00,,,0.00,VWS V14.01,2013-04-06 13:46:00,
2013-04-06 09:51:00,31.8,14.4,29.38,ESE,112,2.7,2.7,48,0.00,,,0.00,VWS V14.01,2013-04-06 13:51:00,
2013-04-06 09:56:00,31.3,16.1,29.38,South,180,5.6,5.6,53,0.00,,,0.00,VWS V14.01,2013-04-06 13:56:00,
2013-04-06 10:01:00,30.9,17.5,29.38,SE,135,2.7,4.9,57,0.00,,,0.00,VWS V14.01,2013-04-06 14:01:00,
2013-04-06 10:07:00,30.7,19.3,29.38,SSE,158,5.4,6.7,62,0.00,,,0.00,VWS V14.01,2013-04-06 14:07:00,
2013-04-06 10:12:00,30.7,20.7,29.35,ESE,112,1.6,4.7,66,0.00,,,0.00,VWS V14.01,2013-04-06 14:12:00,
2013-04-06 10:17:00,30.7,21.8,29.35,SE,135,4.9,6.0,69,0.00,,,0.00,VWS V14.01,2013-04-06 14:17:00,
2013-04-06 10:22:00,30.9,22.6,29.35,ESE,112,3.8,3.8,71,0.00,,,0.00,VWS V14.01,2013-04-06 14:22:00,
2013-04-06 10:27:00,30.9,23.0,29.35,ESE,112,3.8,3.8,72,0.00,,,0.00,VWS V14.01,2013-04-06 14:27:00,
2013-04-06 10:32:00,30.6,23.3,29.35,ESE,112,5.4,7.2,74,0.00,,,0.00,VWS V14.01,2013-04-06 14:32:00,
2013-04-06 10:37:00,30.4,23.4,29.38,ESE,112,6.5,6.5,75,0.00,,,0.00,VWS V14.01,2013-04-06 14:37:00,
2013-04-06 10:43:00,30.6,23.9,29.38,ENE,68,1.3,3.6,76,0.00,,,0.00,VWS V14.01,2013-04-06 14:43:00,
2013-04-06 10:48:00,30.7,23.8,29.38,ENE,68,6.3,6.7,75,0.00,,,0.00,VWS V14.01,2013-04-06 14:48:00,
2013-04-06 10:53:00,30.6,24.2,29.38,SSW,202,2.0,3.4,77,0.00,,,0.00,VWS V14.01,2013-04-06 14:53:00,
2013-04-06 10:58:00,30.7,24.4,29.38,ENE,68,0.9,4.3,77,0.00,,,0.00,VWS V14.01,2013-04-06 14:58:00,
2013-04-06 11:04:00,31.1,24.8,29.38,ENE,68,9.8,9.8,77,0.00,,,0.00,VWS V14.01,2013-04-06 15:04:00,
2013-04-06 11:09:00,31.1,24.8,29.35,ESE,112,9.0,9.0,77,0.00,,,0.00,VWS V14.01,2013-04-06 15:09:00,
2013-04-06 11:14:00,31.3,24.9,29.35,South,180,5.8,5.8,77,0.00,,,0.00,VWS V14.01,2013-04-06 15:14:00,
2013-04-06 11:20:00,31.3,24.9,29.35,East,90,1.6,6.0,77,0.00,,,0.00,VWS V14.01,2013-04-06 15:20:00,
2013-04-06 11:25:00,31.3,25.2,29.35,ENE,68,2.7,4.3,78,0.00,,,0.00,VWS V14.01,2013-04-06 15:25:00,
2013-04-06 11:30:00,31.5,25.4,29.35,North,0,2.7,2.7,78,0.00,,,0.00,VWS V14.01,2013-04-06 15:30:00,
2013-04-06 11:35:00,31.6,25.6,29.35,ENE,68,6.5,8.7,78,0.00,,,0.00,VWS V14.01,2013-04-06 15:35:00,
2013-04-06 11:40:00,31.8,26.1,29.32,SSW,202,2.2,5.4,79,0.00,,,0.00,VWS V14.01,2013-04-06 15:40:00,
2013-04-06 11:45:00,32.2,26.4,29.32,NNE,22,5.4,7.6,79,0.00,,,0.00,VWS V14.01,2013-04-06 15:45:00,
2013-04-06 11:51:00,32.5,26.5,29.32,ESE,112,7.8,8.1,78,0.00,,,0.00,VWS V14.01,2013-04-06 15:51:00,
2013-04-06 11:56:00,32.2,26.1,29.32,ESE,112,5.8,10.5,78,0.00,,,0.00,VWS V14.01,2013-04-06 15:56:00,
2013-04-06 12:01:00,32.4,26.6,29.32,SSE,158,4.3,6.3,79,0.00,,,0.00,VWS V14.01,2013-04-06 16:01:00,
2013-04-06 12:06:00,32.7,26.9,29.32,ENE,68,4.9,7.8,79,0.00,,,0.00,VWS V14.01,2013-04-06 16:06:00,
2013-04-06 12:11:00,33.1,27.3,29.32,ESE,112,10.7,10.7,79,0.00,,,0.00,VWS V14.01,2013-04-06 16:11:00,
2013-04-06 12:17:00,33.6,27.2,29.32,East,90,9.2,9.2,77,0.00,,,0.00,VWS V14.01,2013-04-06 16:17:00,
2013-04-06 12:22:00,34.5,27.4,29.32,ESE,112,6.0,11.0,75,0.00,,,0.00,VWS V14.01,2013-04-06 16:22:00,
2013-04-06 12:27:00,34.9,27.1,29.32,ENE,68,6.3,10.1,73,0.00,,,0.00,VWS V14.01,2013-04-06 16:27:00,
2013-04-06 12:32:00,35.1,26.6,29.32,East,90,7.6,8.5,71,0.00,,,0.00,VWS V14.01,2013-04-06 16:32:00,
2013-04-06 12:37:00,34.5,25.4,29.29,ENE,68,5.6,6.5,69,0.00,,,0.00,VWS V14.01,2013-04-06 16:37:00,
2013-04-06 12:43:00,34.3,25.6,29.29,NE,45,5.8,5.8,70,0.00,,,0.00,VWS V14.01,2013-04-06 16:43:00,
2013-04-06 12:48:00,34.9,25.4,29.29,East,90,5.8,9.2,68,0.00,,,0.00,VWS V14.01,2013-04-06 16:48:00,
2013-04-06 12:53:00,35.1,24.9,29.26,SE,135,3.1,5.6,66,0.00,,,0.00,VWS V14.01,2013-04-06 16:53:00,
2013-04-06 12:58:00,35.1,24.5,29.26,ENE,68,4.3,7.2,65,0.00,,,0.00,VWS V14.01,2013-04-06 16:58:00,
2013-04-06 13:03:00,35.2,24.3,29.26,ESE,112,5.6,9.4,64,0.00,,,0.00,VWS V14.01,2013-04-06 17:03:00,
2013-04-06 13:08:00,35.4,24.5,29.26,East,90,7.6,13.6,64,0.00,,,0.00,VWS V14.01,2013-04-06 17:08:00,
2013-04-06 13:13:00,35.8,23.7,29.26,NNE,22,6.0,7.6,61,0.00,,,0.00,VWS V14.01,2013-04-06 17:13:00,
2013-04-06 13:18:00,36.0,23.0,29.26,East,90,4.0,11.9,59,0.00,,,0.00,VWS V14.01,2013-04-06 17:18:00,
2013-04-06 13:23:00,36.1,23.2,29.26,South,180,8.1,13.2,59,0.00,,,0.00,VWS V14.01,2013-04-06 17:23:00,
2013-04-06 13:28:00,35.8,22.5,29.26,East,90,8.5,12.3,58,0.00,,,0.00,VWS V14.01,2013-04-06 17:28:00,
2013-04-06 13:33:00,35.8,22.5,29.26,ENE,68,6.7,14.3,58,0.00,,,0.00,VWS V14.01,2013-04-06 17:33:00,
2013-04-06 13:38:00,36.0,22.6,29.26,East,90,8.7,8.7,58,0.00,,,0.00,VWS V14.01,2013-04-06 17:38:00,
2013-04-06 13:43:00,36.3,23.0,29.26,East,90,10.1,10.1,58,0.00,,,0.00,VWS V14.01,2013-04-06 17:43:00,
2013-04-06 13:48:00,36.1,22.8,29.26,SSE,158,9.6,12.8,58,0.00,,,0.00,VWS V14.01,2013-04-06 17:48:00,
2013-04-06 13:53:00,36.3,23.0,29.23,ENE,68,8.1,8.1,58,0.00,,,0.00,VWS V14.01,2013-04-06 17:53:00,
2013-04-06 13:58:00,36.1,22.4,29.23,ENE,68,5.8,9.8,57,0.00,,,0.00,VWS V14.01,2013-04-06 17:58:00,
2013-04-06 14:04:00,36.3,22.6,29.23,SE,135,4.9,7.2,57,0.00,,,0.00,VWS V14.01,2013-04-06 18:04:00,
2013-04-06 14:09:00,36.3,21.7,29.20,ESE,112,3.8,6.5,55,0.00,,,0.00,VWS V14.01,2013-04-06 18:09:00,
2013-04-06 14:15:00,36.5,21.9,29.20,East,90,11.4,12.1,55,0.00,,,0.00,VWS V14.01,2013-04-06 18:15:00,
2013-04-06 14:20:00,36.5,21.5,29.20,SSE,158,6.5,12.3,54,0.00,,,0.00,VWS V14.01,2013-04-06 18:20:00,
2013-04-06 14:25:00,36.3,21.3,29.20,ESE,112,10.1,12.3,54,0.00,,,0.00,VWS V14.01,2013-04-06 18:25:00,
2013-04-06 14:30:00,36.1,21.1,29.20,East,90,8.7,10.1,54,0.00,,,0.00,VWS V14.01,2013-04-06 18:30:00,
2013-04-06 14:35:00,35.8,21.2,29.20,East,90,12.3,15.2,55,0.00,,,0.00,VWS V14.01,2013-04-06 18:35:00,
2013-04-06 14:41:00,35.8,21.2,29.20,East,90,8.5,8.5,55,0.00,,,0.00,VWS V14.01,2013-04-06 18:41:00,
2013-04-06 14:46:00,35.8,21.2,29.20,SE,135,6.0,11.0,55,0.00,,,0.00,VWS V14.01,2013-04-06 18:46:00,
2013-04-06 14:51:00,35.8,21.2,29.20,SE,135,10.1,14.5,55,0.00,,,0.00,VWS V14.01,2013-04-06 18:51:00,
2013-04-06 14:56:00,35.8,21.6,29.17,ENE,68,3.8,8.5,56,0.00,,,0.00,VWS V14.01,2013-04-06 18:56:00,
2013-04-06 15:01:00,35.8,22.0,29.17,ESE,112,7.2,7.2,57,0.00,,,0.00,VWS V14.01,2013-04-06 19:01:00,
2013-04-06 15:07:00,35.4,22.9,29.14,East,90,10.5,10.5,60,0.04,,,0.04,VWS V14.01,2013-04-06 19:07:00,
2013-04-06 15:12:00,35.2,24.7,29.14,ESE,112,5.4,6.0,65,0.04,,,0.04,VWS V14.01,2013-04-06 19:12:00,
2013-04-06 15:17:00,35.1,24.9,29.14,ESE,112,3.8,12.8,66,0.04,,,0.04,VWS V14.01,2013-04-06 19:17:00,
2013-04-06 15:22:00,34.9,25.4,29.14,East,90,5.4,8.5,68,0.04,,,0.04,VWS V14.01,2013-04-06 19:22:00,
2013-04-06 15:27:00,34.9,26.1,29.14,SE,135,5.8,5.8,70,0.04,,,0.04,VWS V14.01,2013-04-06 19:27:00,
2013-04-06 15:32:00,34.9,26.5,29.14,NNE,22,7.8,9.0,71,0.04,,,0.04,VWS V14.01,2013-04-06 19:32:00,
2013-04-06 15:37:00,35.1,27.3,29.14,East,90,8.5,8.5,73,0.04,,,0.04,VWS V14.01,2013-04-06 19:37:00,
2013-04-06 15:42:00,35.1,27.3,29.14,SSE,158,5.4,7.2,73,0.04,,,0.04,VWS V14.01,2013-04-06 19:42:00,
2013-04-06 15:47:00,35.2,27.5,29.14,ESE,112,2.0,6.3,73,0.08,,,0.08,VWS V14.01,2013-04-06 19:47:00,
2013-04-06 15:52:00,35.1,27.3,29.12,South,180,2.5,10.3,73,0.08,,,0.08,VWS V14.01,2013-04-06 19:52:00,
2013-04-06 15:58:00,35.1,27.6,29.12,South,180,9.8,9.8,74,0.08,,,0.08,VWS V14.01,2013-04-06 19:58:00,
2013-04-06 16:03:00,35.1,28.0,29.12,SE,135,3.6,9.8,75,0.08,,,0.08,VWS V14.01,2013-04-06 20:03:00,
2013-04-06 16:08:00,35.2,28.1,29.09,ESE,112,5.6,10.7,75,0.04,,,0.08,VWS V14.01,2013-04-06 20:08:00,
2013-04-06 16:13:00,35.4,28.3,29.09,ENE,68,12.5,12.5,75,0.04,,,0.08,VWS V14.01,2013-04-06 20:13:00,
2013-04-06 16:18:00,35.4,28.3,29.09,East,90,3.6,3.6,75,0.04,,,0.08,VWS V14.01,2013-04-06 20:18:00,
2013-04-06 16:23:00,35.6,28.1,29.09,ENE,68,9.6,9.6,74,0.04,,,0.08,VWS V14.01,2013-04-06 20:23:00,
2013-04-06 16:28:00,35.8,28.3,29.09,SE,135,10.7,13.4,74,0.04,,,0.08,VWS V14.01,2013-04-06 20:28:00,
2013-04-06 16:34:00,36.1,28.3,29.09,SE,135,10.5,10.5,73,0.04,,,0.08,VWS V14.01,2013-04-06 20:34:00,
2013-04-06 16:39:00,36.1,28.3,29.03,NE,45,5.6,9.8,73,0.04,,,0.08,VWS V14.01,2013-04-06 20:39:00,
2013-04-06 16:44:00,36.5,27.3,29.03,NNE,22,8.5,15.9,69,0.04,,,0.08,VWS V14.01,2013-04-06 20:44:00,
2013-04-06 16:49:00,36.7,26.0,29.03,ESE,112,15.2,18.1,65,0.00,,,0.08,VWS V14.01,2013-04-06 20:49:00,
2013-04-06 16:55:00,36.7,26.0,29.03,ESE,112,12.5,21.0,65,0.00,,,0.08,VWS V14.01,2013-04-06 20:55:00,
2013-04-06 17:00:00,36.3,25.0,29.03,NE,45,8.1,11.4,63,0.00,,,0.08,VWS V14.01,2013-04-06 21:00:00,
2013-04-06 17:05:00,36.1,25.1,29.03,ESE,112,13.0,14.5,64,0.00,,,0.08,VWS V14.01,2013-04-06 21:05:00,
2013-04-06 17:10:00,36.0,25.7,29.00,East,90,14.5,14.8,66,0.00,,,0.08,VWS V14.01,2013-04-06 21:10:00,
2013-04-06 17:15:00,36.1,26.3,29.00,SE,135,17.0,17.0,67,0.00,,,0.08,VWS V14.01,2013-04-06 21:15:00,
2013-04-06 17:20:00,36.3,26.1,29.00,ESE,112,7.6,29.8,66,0.00,,,0.08,VWS V14.01,2013-04-06 21:20:00,
2013-04-06 17:25:00,36.7,26.0,28.97,SSE,158,11.0,11.0,65,0.00,,,0.08,VWS V14.01,2013-04-06 21:25:00,
2013-04-06 17:30:00,36.9,25.8,28.97,SSE,158,8.7,11.0,64,0.00,,,0.08,VWS V14.01,2013-04-06 21:30:00,
2013-04-06 17:36:00,37.0,25.6,28.97,ENE,68,4.9,8.1,63,0.00,,,0.08,VWS V14.01,2013-04-06 21:36:00,
2013-04-06 17:41:00,37.2,25.0,28.97,East,90,4.3,5.8,61,0.00,,,0.08,VWS V14.01,2013-04-06 21:41:00,
2013-04-06 17:46:00,37.4,24.0,28.97,East,90,11.0,11.0,58,0.00,,,0.00,VWS V14.01,2013-04-06 21:46:00,
2013-04-06 17:51:00,37.6,23.7,28.97,East,90,10.1,13.0,57,0.00,,,0.08,VWS V14.01,2013-04-06 21:51:00,
2013-04-06 17:56:00,37.6,23.3,28.97,SSE,158,10.1,10.1,56,0.00,,,0.08,VWS V14.01,2013-04-06 21:56:00,
2013-04-06 18:02:00,37.6,22.9,28.97,North,0,6.3,15.4,55,0.00,,,0.08,VWS V14.01,2013-04-06 22:02:00,
2013-04-06 18:07:00,37.6,22.9,28.97,SE,135,6.0,12.1,55,0.00,,,0.08,VWS V14.01,2013-04-06 22:07:00,
2013-04-06 18:12:00,37.6,22.5,28.97,SE,135,5.6,10.1,54,0.00,,,0.08,VWS V14.01,2013-04-06 22:12:00,
2013-04-06 18:17:00,37.6,22.5,28.97,ENE,68,6.3,13.0,54,0.00,,,0.08,VWS V14.01,2013-04-06 22:17:00,
2013-04-06 18:22:00,37.6,22.0,29.00,South,180,6.0,17.0,53,0.00,,,0.08,VWS V14.01,2013-04-06 22:22:00,
2013-04-06 18:27:00,37.6,22.5,29.00,SE,135,6.3,8.7,54,0.00,,,0.08,VWS V14.01,2013-04-06 22:27:00,
2013-04-06 18:32:00,37.4,22.3,29.00,SSE,158,5.4,5.4,54,0.00,,,0.08,VWS V14.01,2013-04-06 22:32:00,
2013-04-06 18:37:00,37.4,22.7,29.00,SSE,158,10.5,12.8,55,0.00,,,0.08,VWS V14.01,2013-04-06 22:37:00,
2013-04-06 18:42:00,37.6,22.5,29.00,South,180,8.5,8.5,54,0.00,,,0.08,VWS V14.01,2013-04-06 22:42:00,
2013-04-06 18:47:00,37.6,22.0,29.00,SW,225,3.1,3.1,53,0.00,,,0.08,VWS V14.01,2013-04-06 22:47:00,
2013-04-06 18:52:00,37.8,21.7,29.00,ENE,68,9.8,9.8,52,0.00,,,0.08,VWS V14.01,2013-04-06 22:52:00,
2013-04-06 18:57:00,37.8,21.7,29.00,NNE,22,2.9,8.7,52,0.00,,,0.08,VWS V14.01,2013-04-06 22:57:00,
2013-04-06 19:02:00,37.9,21.9,29.00,South,180,11.9,11.9,52,0.00,,,0.08,VWS V14.01,2013-04-06 23:02:00,
2013-04-06 19:07:00,37.9,21.9,29.00,South,180,13.6,13.6,52,0.00,,,0.08,VWS V14.01,2013-04-06 23:07:00,
2013-04-06 19:13:00,37.6,22.5,29.00,SE,135,8.5,8.5,54,0.00,,,0.08,VWS V14.01,2013-04-06 23:13:00,
2013-04-06 19:18:00,37.4,23.1,29.00,East,90,3.6,5.8,56,0.00,,,0.08,VWS V14.01,2013-04-06 23:18:00,
2013-04-06 19:23:00,36.9,24.3,28.97,ENE,68,8.1,8.1,60,0.00,,,0.08,VWS V14.01,2013-04-06 23:23:00,
2013-04-06 19:28:00,36.7,24.5,28.97,SE,135,7.8,15.4,61,0.00,,,0.08,VWS V14.01,2013-04-06 23:28:00,
2013-04-06 19:33:00,36.7,24.5,28.97,ESE,112,7.6,7.6,61,0.00,,,0.08,VWS V14.01,2013-04-06 23:33:00,
2013-04-06 19:39:00,36.9,24.7,28.94,ENE,68,9.0,10.7,61,0.00,,,0.08,VWS V14.01,2013-04-06 23:39:00,
2013-04-06 19:44:00,37.0,24.5,28.94,SW,225,5.8,5.8,60,0.00,,,0.08,VWS V14.01,2013-04-06 23:44:00,
2013-04-06 19:49:00,37.2,24.2,28.94,ENE,68,9.6,9.6,59,0.00,,,0.08,VWS V14.01,2013-04-06 23:49:00,
2013-04-06 19:54:00,37.2,24.2,28.97,ENE,68,3.4,6.3,59,0.00,,,0.08,VWS V14.01,2013-04-06 23:54:00,
2013-04-06 19:59:00,37.4,23.6,28.97,ENE,68,7.2,7.2,57,0.00,,,0.08,VWS V14.01,2013-04-06 23:59:00,
2013-04-06 20:05:00,37.6,23.3,28.97,SSW,202,9.4,10.5,56,0.00,,,0.08,VWS V14.01,2013-04-07 00:05:00,
2013-04-06 20:10:00,37.6,22.9,28.94,WNW,292,5.8,5.8,55,0.00,,,0.08,VWS V14.01,2013-04-07 00:10:00,
2013-04-06 20:15:00,37.9,22.4,28.94,East,90,5.6,13.2,53,0.00,,,0.08,VWS V14.01,2013-04-07 00:15:00,
2013-04-06 20:20:00,38.1,22.5,28.94,ENE,68,5.8,5.8,53,0.00,,,0.08,VWS V14.01,2013-04-07 00:20:00,
2013-04-06 20:25:00,38.1,22.1,28.97,South,180,5.8,10.1,52,0.00,,,0.08,VWS V14.01,2013-04-07 00:25:00,
2013-04-06 20:30:00,38.1,22.1,28.97,SE,135,3.6,8.7,52,0.00,,,0.08,VWS V14.01,2013-04-07 00:30:00,
2013-04-06 20:35:00,38.1,22.1,28.97,WSW,248,7.6,7.6,52,0.00,,,0.08,VWS V14.01,2013-04-07 00:35:00,
2013-04-06 20:40:00,38.1,22.1,28.94,ESE,112,3.1,8.5,52,0.00,,,0.08,VWS V14.01,2013-04-07 00:40:00,
2013-04-06 20:46:00,38.5,21.9,28.94,ESE,112,6.5,7.8,51,0.00,,,0.08,VWS V14.01,2013-04-07 00:46:00,
2013-04-06 20:51:00,38.7,21.6,28.94,ESE,112,6.3,7.4,50,0.00,,,0.08,VWS V14.01,2013-04-07 00:51:00,
2013-04-06 20:56:00,38.8,21.8,28.94,SSE,158,4.9,10.7,50,0.00,,,0.08,VWS V14.01,2013-04-07 00:56:00,
2013-04-06 21:01:00,39.0,22.0,28.94,SE,135,8.5,8.5,50,0.00,,,0.08,VWS V14.01,2013-04-07 01:01:00,
2013-04-06 21:07:00,38.8,22.3,28.94,NE,45,3.4,10.3,51,0.00,,,0.08,VWS V14.01,2013-04-07 01:07:00,
2013-04-06 21:12:00,38.7,22.1,28.94,SE,135,5.8,5.8,51,0.00,,,0.08,VWS V14.01,2013-04-07 01:12:00,
2013-04-06 21:17:00,38.7,22.6,28.94,North,0,4.0,7.8,52,0.00,,,0.08,VWS V14.01,2013-04-07 01:17:00,
2013-04-06 21:22:00,38.5,23.3,28.91,East,90,7.8,7.8,54,0.00,,,0.08,VWS V14.01,2013-04-07 01:22:00,
2013-04-06 21:27:00,38.1,24.2,28.91,SE,135,7.8,7.8,57,0.00,,,0.08,VWS V14.01,2013-04-07 01:27:00,
2013-04-06 21:32:00,37.8,24.7,28.91,ESE,112,4.0,7.8,59,0.00,,,0.08,VWS V14.01,2013-04-07 01:32:00,
2013-04-06 21:38:00,37.4,25.2,28.91,South,180,3.8,8.1,61,0.00,,,0.08,VWS V14.01,2013-04-07 01:38:00,
2013-04-06 21:43:00,37.2,25.8,28.91,East,90,6.9,8.1,63,0.00,,,0.08,VWS V14.01,2013-04-07 01:43:00,
2013-04-06 21:48:00,37.0,26.0,28.91,SSW,202,13.0,13.0,64,0.00,,,0.08,VWS V14.01,2013-04-07 01:48:00,
2013-04-06 21:53:00,37.0,25.2,28.88,ESE,112,5.4,12.5,62,0.00,,,0.08,VWS V14.01,2013-04-07 01:53:00,
2013-04-06 21:58:00,37.0,25.6,28.88,SE,135,9.6,9.6,63,0.00,,,0.08,VWS V14.01,2013-04-07 01:58:00,
2013-04-06 22:03:00,37.0,25.2,28.88,ESE,112,11.0,11.0,62,0.00,,,0.08,VWS V14.01,2013-04-07 02:03:00,
2013-04-06 22:08:00,37.0,25.2,28.88,SSE,158,6.5,8.1,62,0.00,,,0.08,VWS V14.01,2013-04-07 02:08:00,
2013-04-06 22:14:00,37.6,24.6,28.88,SW,225,3.1,7.4,59,0.00,,,0.08,VWS V14.01,2013-04-07 02:14:00,
2013-04-06 22:19:00,37.8,24.3,28.88,East,90,5.6,6.5,58,0.00,,,0.08,VWS V14.01,2013-04-07 02:19:00,
2013-04-06 22:24:00,38.1,23.8,28.88,ESE,112,5.8,7.6,56,0.00,,,0.08,VWS V14.01,2013-04-07 02:24:00,
2013-04-06 22:30:00,38.5,23.7,28.88,ESE,112,15.4,15.4,55,0.00,,,0.08,VWS V14.01,2013-04-07 02:30:00,
2013-04-06 22:35:00,38.7,23.9,28.88,ENE,68,12.1,12.1,55,0.00,,,0.08,VWS V14.01,2013-04-07 02:35:00,
2013-04-06 22:40:00,38.7,23.9,28.85,WSW,248,11.0,11.0,55,0.00,,,0.08,VWS V14.01,2013-04-07 02:40:00,
2013-04-06 22:45:00,38.8,23.6,28.85,SE,135,14.5,14.5,54,0.00,,,0.08,VWS V14.01,2013-04-07 02:45:00,
2013-04-06 22:50:00,39.2,23.1,28.85,East,90,4.3,4.7,52,0.00,,,0.08,VWS V14.01,2013-04-07 02:50:00,
2013-04-06 22:55:00,39.9,22.8,28.85,ENE,68,10.3,10.3,50,0.00,,,0.08,VWS V14.01,2013-04-07 02:55:00,
2013-04-06 23:00:00,43.7,21.6,28.79,SSW,202,6.3,8.5,41,0.00,,,0.08,VWS V14.01,2013-04-07 03:00:00,
2013-04-06 23:01:00,40.3,22.7,28.85,SE,135,10.3,15.2,49,0.00,,,0.08,VWS V14.01,2013-04-07 03:01:00,
2013-04-06 23:02:00,43.7,21.6,28.79,SSE,158,3.8,7.2,41,0.00,,,0.08,VWS V14.01,2013-04-07 03:02:00,
2013-04-06 23:03:00,43.7,22.1,28.79,SSW,202,13.9,13.9,42,0.00,,,0.08,VWS V14.01,2013-04-07 03:03:00,
2013-04-06 23:04:00,43.7,22.1,28.79,SSW,202,13.9,13.9,42,0.00,,,0.08,VWS V14.01,2013-04-07 03:04:00,
2013-04-06 23:05:00,43.9,21.7,28.79,SE,135,5.8,13.9,41,0.00,,,0.08,VWS V14.01,2013-04-07 03:05:00,
2013-04-06 23:06:00,40.5,22.8,28.85,ESE,112,4.3,9.6,49,0.00,,,0.08,VWS V14.01,2013-04-07 03:06:00,
2013-04-06 23:07:00,44.1,21.9,28.76,SSW,202,6.3,12.3,41,0.00,,,0.08,VWS V14.01,2013-04-07 03:07:00,
2013-04-06 23:09:00,44.1,21.9,28.76,South,180,2.9,5.4,41,0.00,,,0.08,VWS V14.01,2013-04-07 03:09:00,
2013-04-06 23:10:00,44.1,21.9,28.76,SSW,202,7.6,13.2,41,0.00,,,0.08,VWS V14.01,2013-04-07 03:10:00,
2013-04-06 23:11:00,41.0,22.8,28.85,SSE,158,4.5,6.3,48,0.00,,,0.08,VWS V14.01,2013-04-07 03:11:00,
2013-04-06 23:12:00,44.2,22.0,28.76,SSW,202,12.3,12.3,41,0.00,,,0.08,VWS V14.01,2013-04-07 03:12:00,
2013-04-06 23:13:00,44.2,22.0,28.76,South,180,4.3,12.3,41,0.00,,,0.08,VWS V14.01,2013-04-07 03:13:00,
2013-04-06 23:14:00,44.2,22.0,28.76,SSE,158,7.4,7.8,41,0.00,,,0.08,VWS V14.01,2013-04-07 03:14:00,
2013-04-06 23:15:00,44.2,22.0,28.76,SSW,202,1.6,4.9,41,0.00,,,0.08,VWS V14.01,2013-04-07 03:15:00,
2013-04-06 23:16:00,41.4,22.1,28.85,SE,135,10.5,10.5,46,0.00,,,0.08,VWS V14.01,2013-04-07 03:16:00,
2013-04-06 23:17:00,44.2,22.0,28.76,SE,135,3.4,4.9,41,0.00,,,0.08,VWS V14.01,2013-04-07 03:17:00,
2013-04-06 23:18:00,44.2,22.0,28.76,South,180,7.2,13.2,41,0.00,,,0.08,VWS V14.01,2013-04-07 03:18:00,
2013-04-06 23:19:00,44.2,22.0,28.76,SSE,158,7.8,8.5,41,0.00,,,0.08,VWS V14.01,2013-04-07 03:19:00,
2013-04-06 23:20:00,44.2,22.0,28.76,South,180,8.1,8.1,41,0.00,,,0.08,VWS V14.01,2013-04-07 03:20:00,
2013-04-06 23:22:00,41.7,22.0,28.85,ESE,112,6.5,12.8,45,0.00,,,0.08,VWS V14.01,2013-04-07 03:22:00,
2013-04-06 23:23:00,44.6,21.8,28.79,SSE,158,12.5,12.5,40,0.00,,,0.08,VWS V14.01,2013-04-07 03:23:00,
2013-04-06 23:24:00,44.6,21.8,28.79,SSE,158,4.0,12.5,40,0.00,,,0.08,VWS V14.01,2013-04-07 03:24:00,
2013-04-06 23:25:00,44.8,22.0,28.79,SSE,158,6.3,8.5,40,0.00,,,0.08,VWS V14.01,2013-04-07 03:25:00,
2013-04-06 23:27:00,42.1,21.8,28.85,South,180,5.8,8.5,44,0.00,,,0.08,VWS V14.01,2013-04-07 03:27:00,
2013-04-06 23:29:00,45.0,22.1,28.79,SSW,202,3.8,3.8,40,0.00,,,0.08,VWS V14.01,2013-04-07 03:29:00,
2013-04-06 23:30:00,45.1,22.3,28.79,SSE,158,8.1,12.5,40,0.00,,,0.08,VWS V14.01,2013-04-07 03:30:00,
2013-04-06 23:32:00,42.3,21.9,28.85,East,90,4.3,8.1,44,0.00,,,0.08,VWS V14.01,2013-04-07 03:32:00,
2013-04-06 23:34:00,45.5,22.6,28.79,South,180,7.2,15.7,40,0.00,,,0.08,VWS V14.01,2013-04-07 03:34:00,
2013-04-06 23:37:00,42.6,21.7,28.82,SSE,158,5.4,11.0,43,0.00,,,0.08,VWS V14.01,2013-04-07 03:37:00,
2013-04-06 23:42:00,42.8,21.3,28.82,ESE,112,12.3,12.3,42,0.00,,,0.08,VWS V14.01,2013-04-07 03:42:00,
2013-04-06 23:47:00,43.0,21.5,28.82,South,180,7.4,7.4,42,0.00,,,0.08,VWS V14.01,2013-04-07 03:47:00,
2013-04-06 23:52:00,43.3,21.2,28.82,SSW,202,11.9,11.9,41,0.00,,,0.08,VWS V14.01,2013-04-07 03:52:00,
2013-04-06 23:57:00,43.7,21.6,28.79,South,180,9.4,9.4,41,0.00,,,0.08,VWS V14.01,2013-04-07 03:57:00,